Holdrege, NE

7:27 PM CDT on March 28, 2017 (GMT -0500)
Brewster

Weather History for KHDE - January, 2013

Change the Weather History Date:

Wednesday, January 9, 2013

  Actual Average Record
Temperature  
Mean Temperature 32 °F -  
Max Temperature 43 °F 31 °F 60 °F (1990)
Min Temperature 22 °F 10 °F -10 °F (1973)
Degree Days  
Heating Degree Days 32    
Moisture  
Dew Point 25 °F    
Average Humidity 75    
Maximum Humidity 86    
Minimum Humidity 56    
Precipitation  
Precipitation 0.00 in - - ()
Sea Level Pressure  
Sea Level Pressure 30.28 in    
Wind  
Wind Speed 8 mph (SW)    
Max Wind Speed 13 mph    
Max Gust Speed -    
Visibility 10 miles    
Events      
Averages and records for this station are not official NWS values.
T = Trace of Precipitation, MM = Missing Value Source: NWS Daily Summary

Daily Weather History Graph

Daily Weather History Graph

Search for Another Location

Airport or City:

Trip Planner

Search our weather history database for the weather conditions in past years. The results will help you decide how hot, cold, wet, or windy it might be!

Date:

Astronomy

Jan. 09, 2013 Rise Set
Actual Time 8:00 AM CST 5:29 PM CST
Civil Twilight 7:29 AM CST 5:59 PM CST
Nautical Twilight 6:56 AM CST 6:33 PM CST
Astronomical Twilight 6:23 AM CST 7:06 PM CST
Moon 5:41 AM CST (1/9) 3:32 PM CST (1/9)
Length of Visible Light 10h 29m
Length of Day
9h 29m
Waning Crescent, 6% of the Moon is Illuminated
Jan 9
Waning Crescent
Jan 11
New
Jan 18
First Quarter
Jan 26
Full
Feb 3
Last Quarter

Hourly Weather History & Observations

Time (CST) Temp. Windchill Dew Point Humidity Pressure Visibility Wind Dir Wind Speed Gust Speed Precip Events Conditions
12:15 AM 30.6 °F 23.1 °F 23.0 °F 74% 30.19 in 10.0 mi WNW 8.1 mph - N/A   Scattered Clouds
12:35 AM 31.1 °F 23.7 °F 22.8 °F 71% 30.20 in 10.0 mi WNW 8.1 mph - N/A   Scattered Clouds
12:55 AM 30.6 °F 23.1 °F 22.5 °F 72% 30.21 in 10.0 mi WNW 8.1 mph - N/A   Clear
1:15 AM 28.4 °F 21.2 °F 21.6 °F 76% 30.21 in 10.0 mi WNW 6.9 mph - N/A   Scattered Clouds
1:35 AM 28.9 °F 21.9 °F 22.3 °F 76% 30.22 in 10.0 mi NW 6.9 mph - N/A   Scattered Clouds
2:15 AM 27.9 °F 19.8 °F 21.9 °F 78% 30.23 in 10.0 mi WNW 8.1 mph - N/A   Scattered Clouds
2:35 AM 27.5 °F 19.3 °F 21.9 °F 80% 30.24 in 10.0 mi NW 8.1 mph - N/A   Scattered Clouds
2:55 AM 25.9 °F 19.2 °F 20.5 °F 80% 30.24 in 10.0 mi WNW 5.8 mph - N/A   Scattered Clouds
3:15 AM 26.6 °F 18.2 °F 21.4 °F 81% 30.25 in 10.0 mi WNW 8.1 mph - N/A   Scattered Clouds
3:35 AM 27.5 °F 19.3 °F 21.6 °F 78% 30.25 in 10.0 mi NW 8.1 mph - N/A   Scattered Clouds
3:55 AM 26.4 °F 18.0 °F 20.7 °F 79% 30.25 in 10.0 mi NW 8.1 mph - N/A   Clear
4:15 AM 26.1 °F 18.4 °F 21.0 °F 81% 30.24 in 10.0 mi NW 6.9 mph - N/A   Scattered Clouds
4:35 AM 25.7 °F 18.0 °F 20.5 °F 81% 30.23 in 10.0 mi NNW 6.9 mph - N/A   Scattered Clouds
4:55 AM 25.9 °F 21.7 °F 20.3 °F 79% 30.25 in 10.0 mi NW 3.5 mph - N/A   Clear
5:15 AM 25.7 °F - 20.5 °F 81% 30.25 in 10.0 mi Calm Calm - N/A   Clear
5:35 AM 22.3 °F 16.1 °F 18.1 °F 84% 30.25 in 10.0 mi NW 4.6 mph - N/A   Clear
5:55 AM 24.3 °F 18.4 °F 19.4 °F 82% 30.25 in 10.0 mi WNW 4.6 mph - N/A   Clear
6:15 AM 22.8 °F 16.7 °F 19.2 °F 86% 30.26 in 10.0 mi West 4.6 mph - N/A   Clear
6:35 AM 24.8 °F 17.9 °F 20.7 °F 84% 30.28 in 10.0 mi SW 5.8 mph - N/A   Clear
6:55 AM 23.7 °F 13.3 °F 19.4 °F 84% 30.30 in 10.0 mi SW 10.4 mph - N/A   Clear
7:15 AM 23.2 °F 14.1 °F 19.0 °F 84% 30.31 in 10.0 mi SW 8.1 mph - N/A   Clear
7:35 AM 22.6 °F 13.4 °F 18.3 °F 83% 30.32 in 10.0 mi SSW 8.1 mph - N/A   Clear
7:55 AM 25.0 °F 17.1 °F 19.8 °F 81% 30.33 in 10.0 mi SSW 6.9 mph - N/A   Clear
8:35 AM 24.8 °F 16.1 °F 19.4 °F 80% 30.35 in 10.0 mi SW 8.1 mph - N/A   Clear
8:55 AM 26.8 °F 19.3 °F 20.8 °F 78% 30.36 in 10.0 mi SW 6.9 mph - N/A   Clear
9:15 AM 27.9 °F - 21.4 °F 77% 30.37 in 10.0 mi Calm Calm - N/A   Clear
9:35 AM 29.7 °F 22.8 °F 23.0 °F 76% 30.38 in 10.0 mi WSW 6.9 mph - N/A   Clear
9:55 AM 31.8 °F 23.3 °F 23.9 °F 73% 30.38 in 10.0 mi West 10.4 mph - N/A   Clear
10:15 AM 33.6 °F 26.8 °F 25.3 °F 72% 30.38 in 10.0 mi WSW 8.1 mph - N/A   Clear
10:35 AM 36.7 °F 28.9 °F 26.2 °F 66% 30.38 in 10.0 mi WSW 11.5 mph - N/A   Clear
11:15 AM 37.6 °F 31.6 °F 27.1 °F 66% 30.37 in 10.0 mi WSW 8.1 mph - N/A   Clear
11:55 AM 40.3 °F 34.4 °F 27.7 °F 61% 30.36 in 10.0 mi West 9.2 mph - N/A   Clear
12:15 PM 40.8 °F 35.0 °F 28.6 °F 62% 30.35 in 10.0 mi West 9.2 mph - N/A   Clear
12:35 PM 40.5 °F 33.6 °F 27.7 °F 60% 30.33 in 10.0 mi West 11.5 mph - N/A   Clear
12:55 PM 40.3 °F 34.4 °F 27.7 °F 61% 30.32 in 10.0 mi West 9.2 mph - N/A   Clear
1:15 PM 41.2 °F 36.0 °F 28.2 °F 60% 30.30 in 10.0 mi West 8.1 mph - N/A   Clear
1:35 PM 42.6 °F 37.8 °F 28.2 °F 57% 30.29 in 10.0 mi West 8.1 mph - N/A   Clear
1:55 PM 43.0 °F 38.2 °F 28.4 °F 56% 30.29 in 10.0 mi WSW 8.1 mph - N/A   Clear
2:15 PM 43.0 °F 39.5 °F 28.6 °F 57% 30.29 in 10.0 mi WSW 5.8 mph - N/A   Clear
2:35 PM 42.3 °F 37.9 °F 29.3 °F 60% 30.29 in 10.0 mi SW 6.9 mph - N/A   Clear
2:55 PM 40.8 °F 37.8 °F 29.5 °F 64% 30.28 in 10.0 mi South 4.6 mph - N/A   Clear
3:15 PM 41.2 °F 38.2 °F 29.7 °F 64% 30.28 in 10.0 mi SW 4.6 mph - N/A   Clear
3:35 PM 43.0 °F - 29.8 °F 60% 30.27 in 10.0 mi Calm Calm - N/A   Clear
3:55 PM 41.5 °F - 29.3 °F 62% 30.27 in 10.0 mi Calm Calm - N/A   Clear
4:15 PM 41.5 °F 38.6 °F 29.5 °F 62% 30.27 in 10.0 mi SSW 4.6 mph - N/A   Clear
4:35 PM 40.3 °F 33.9 °F 28.9 °F 64% 30.28 in 10.0 mi SSW 10.4 mph - N/A   Clear
5:15 PM 35.6 °F 31.7 °F 28.2 °F 75% 30.27 in 10.0 mi SW 4.6 mph - N/A   Clear
5:35 PM 33.6 °F 28.4 °F 27.5 °F 78% 30.26 in 10.0 mi South 5.8 mph - N/A   Clear
5:55 PM 32.9 °F 25.3 °F 27.0 °F 79% 30.25 in 10.0 mi South 9.2 mph - N/A   Clear
6:15 PM 32.5 °F 25.5 °F 26.2 °F 78% 30.25 in 10.0 mi South 8.1 mph - N/A   Clear
6:35 PM 31.8 °F 24.6 °F 25.5 °F 78% 30.27 in 10.0 mi South 8.1 mph - N/A   Clear
6:55 PM 31.5 °F 22.9 °F 24.8 °F 76% 30.28 in 10.0 mi South 10.4 mph - N/A   Clear
7:15 PM 32.7 °F 23.9 °F 26.4 °F 78% 30.28 in 10.0 mi South 11.5 mph - N/A   Clear
7:35 PM 32.0 °F 23.6 °F 27.0 °F 82% 30.28 in 10.0 mi South 10.4 mph - N/A   Clear
7:55 PM 32.0 °F 23.0 °F 27.0 °F 82% 30.28 in 10.0 mi South 11.5 mph - N/A   Clear
8:15 PM 32.4 °F 24.0 °F 27.5 °F 82% 30.28 in 10.0 mi South 10.4 mph - N/A   Clear
8:35 PM 32.0 °F 24.2 °F 27.3 °F 83% 30.26 in 10.0 mi South 9.2 mph - N/A   Clear
8:55 PM 31.8 °F 23.9 °F 27.1 °F 83% 30.27 in 10.0 mi South 9.2 mph - N/A   Clear
9:15 PM 31.8 °F 23.3 °F 27.1 °F 83% 30.26 in 10.0 mi South 10.4 mph - N/A   Clear
9:35 PM 32.0 °F 24.8 °F 27.3 °F 83% 30.26 in 10.0 mi South 8.1 mph - N/A   Clear
9:55 PM 33.1 °F 24.9 °F 27.5 °F 80% 30.26 in 10.0 mi South 10.4 mph - N/A   Clear
10:15 PM 33.8 °F 24.8 °F 28.2 °F 80% 30.26 in 10.0 mi South 12.7 mph - N/A   Clear
10:35 PM 34.2 °F 25.7 °F 28.4 °F 79% 30.26 in 10.0 mi South 11.5 mph - N/A   Clear
10:55 PM 32.9 °F 24.7 °F 28.2 °F 83% 30.26 in 10.0 mi South 10.4 mph - N/A   Clear
11:15 PM 33.1 °F 24.9 °F 28.2 °F 82% 30.26 in 10.0 mi South 10.4 mph - N/A   Clear
11:35 PM 32.5 °F 24.8 °F 27.9 °F 83% 30.26 in 10.0 mi South 9.2 mph - N/A   Clear
11:55 PM 32.0 °F 24.8 °F 28.0 °F 85% 30.25 in 10.0 mi South 8.1 mph - N/A   Clear